Weather History for KCTY - October, 2014

Change the Weather History Date:

Saturday, October 4, 2014

  Actual Average Record
Temperature  
Mean Temperature 69 °F 74 °F  
Max Temperature 82 °F 85 °F 93 °F (2013)
Min Temperature 55 °F 63 °F 44 °F (2011)
Degree Days  
Heating Degree Days 0 0  
Month to date heating degree days 0 0  
Since 1 July heating degree days 0 0  
Cooling Degree Days 4 9  
Month to date cooling degree days 52 39  
Year to date cooling degree days 2541 2381  
Growing Degree Days 22 (Base 50)    
Moisture  
Dew Point 63 °F    
Average Humidity 72    
Maximum Humidity 94    
Minimum Humidity 42    
Precipitation  
Precipitation 0.50 in 0.14 in 1.36 in (1999)
Month to date precipitation 0.80 0.61  
Year to date precipitation 53.85 40.44  
Sea Level Pressure  
Sea Level Pressure 29.91 in    
Wind  
Wind Speed 7 mph (NW)    
Max Wind Speed 18 mph    
Max Gust Speed 23 mph    
T = Trace of Precipitation, MM = Missing Value Source: NWS Daily Summary

Daily Weather History Graph

Daily Weather History Graph

Search for Another Location

Airport or City:

Trip Planner

Search our weather history database for the weather conditions in past years. The results will help you decide how hot, cold, wet, or windy it might be!

Date:

Astronomy

Oct. 04, 2014 Rise Set
Actual Time 7:27 AM EDT 7:14 PM EDT
Civil Twilight 7:03 AM EDT 7:38 PM EDT
Nautical Twilight 6:35 AM EDT 8:05 PM EDT
Astronomical Twilight 6:08 AM EDT 8:33 PM EDT
Moon 4:34 PM EDT 3:12 AM EDT
Length of Visible Light 12h 34m
Length of Day
11h 46m
Waxing Gibbous, 81% of the Moon is Illuminated
Oct 4
Waxing Gibbous
Oct 8
Full
Oct 15
Last Quarter
Oct 23
New
Oct 30
First Quarter

Hourly Weather History & Observations

Time (EDT) Temp. Heat Index Dew Point Humidity Pressure Visibility Wind Dir Wind Speed Gust Speed Precip Events Conditions
12:53 AM 75.0 °F - 73.9 °F 96% 29.93 in - SW 3.5 mph - 0.01 in   Unknown
1:53 AM 75.0 °F - 73.0 °F 94% 29.91 in - WSW 6.9 mph - 0.01 in   Unknown
2:53 AM 75.0 °F - 72.0 °F 90% 29.89 in - NW 4.6 mph - 0.38 in   Unknown
3:53 AM 73.9 °F - 72.0 °F 93% 29.88 in - Calm Calm - 0.05 in   Unknown
4:53 AM 73.9 °F - 72.0 °F 93% 29.88 in - NNW 6.9 mph - N/A   Unknown
5:53 AM 73.0 °F - 72.0 °F 96% 29.88 in - NW 4.6 mph - N/A   Unknown
6:53 AM 72.0 °F - 70.0 °F 93% 29.89 in - NNW 5.8 mph - N/A   Unknown
7:53 AM 71.1 °F - 69.1 °F 93% 29.91 in - NNW 4.6 mph - 0.02 in   Unknown
8:53 AM 72.0 °F - 69.1 °F 91% 29.91 in - NNW 10.4 mph - 0.01 in   Unknown
9:53 AM 73.9 °F - 66.0 °F 76% 29.92 in - North 9.2 mph - 0.01 in   Unknown
10:53 AM 77.0 °F - 64.9 °F 66% 29.93 in - Variable 6.9 mph - 0.01 in   Unknown
11:53 AM 78.1 °F - 62.1 °F 58% 29.95 in - NNW 10.4 mph 18.4 mph 0.01 in   Unknown
12:53 PM 80.1 °F 81.1 °F 61.0 °F 52% 29.93 in - NNW 10.4 mph - N/A   Unknown
1:53 PM 81.0 °F 81.3 °F 59.0 °F 47% 29.91 in - NNW 11.5 mph 17.3 mph N/A   Unknown
2:53 PM 82.0 °F 82.1 °F 59.0 °F 45% 29.89 in - North 9.2 mph - N/A   Unknown
3:53 PM 81.0 °F 80.8 °F 55.9 °F 42% 29.86 in - NW 8.1 mph - N/A   Unknown
4:53 PM 78.1 °F - 57.9 °F 50% 29.86 in - West 12.7 mph - N/A   Unknown
5:53 PM 77.0 °F - 55.0 °F 47% 29.87 in - West 10.4 mph - N/A   Unknown
6:53 PM 73.0 °F - 55.0 °F 53% 29.87 in - West 5.8 mph - N/A   Unknown
7:53 PM 66.9 °F - 57.0 °F 70% 29.88 in - NW 5.8 mph - N/A   Unknown
8:53 PM 64.0 °F - 55.9 °F 75% 29.91 in - NNW 3.5 mph - N/A   Unknown
9:53 PM 62.1 °F - 51.1 °F 67% 29.96 in - NNW 5.8 mph - N/A   Unknown
10:53 PM 61.0 °F - 48.0 °F 62% 29.98 in - North 6.9 mph - N/A   Unknown
11:53 PM 57.0 °F - 48.0 °F 72% 29.98 in - North 5.8 mph - N/A   Unknown